Location: Melizzano
(41.1500°N, 14.5000°E)
Time: 09:11:29
(UTC+00:00)

Meteor 1-11 Rocket - Pass Details

Date: 11 May 2021
Orbit: 831 x 916 km, 81.2° (Epoch: 15 June)

Event Time Altitude Azimuth Distance (km) Brightness Sun altitude
Rises 20:38:08 0° 352° (N) 3,562 8.0 -22.4°
Reaches altitude 10° 20:40:39 10° 355° (N) 2,614 7.0 -22.7°
Maximum altitude 20:46:36 68° 79° (E) 977 3.8 -23.3°
Enters shadow 20:47:54 53° 136° (SE) 1,109 3.9 -23.5°
